Weather in Iwaki

Japan     37°00′56″N   140°53′35″E
temp.,
°C
wind,
m/s
gust,
m/s
humid.,
%
clouds,
%
prec.,
mm/h
press.,
hPa
HPBL,
m
2 december, thu
thu200:00+7nw915590 0.0 1005931
03:00+6nw1014620 0.0 10081011
06:00+6wnw615654 0.0 10121672
09:00+6wnw614585 0.0 10161610
12:00+9nw7124919 0.0 10161734
15:00+9nw68530 0.0 10171056
18:00+8sw25563 0.0 1020699
21:00+11s71155100 0.0 10201263
3 december, fri
fri300:00+12ssw71160100 0.1 10191253
03:00+11ssw81285100 2.4 10171103
06:00+10wsw23840 0.8 1015234
09:00+11sw47750 0.8 1015502
12:00+13sw89580 0.0 10121051
15:00+14wsw34460 0.0 1012681
18:00+11nw34640 0.0 1013185
21:00+9wnw23540 0.0 1012113
4 december, sat
sat400:00+9nw34530 0.0 1011120
03:00+8nw57700 0.0 1012250
06:00+8nnw47720 0.0 1013382
09:00+9nnw23660 0.0 1014455
12:00+11ne135428 0.0 1013857
15:00+12wnw364923 0.0 10141128
18:00+8nw9166680 0.0 10191179
21:00+7nw9166070 0.0 10201148
5 december, sun
sun500:00+6nw1016595 0.0 10221045
03:00+6nw1117580 0.0 1024964
06:00+5nnw815560 0.0 10261036
09:00+6n610510 0.0 1028992
12:00+8nne35453 0.0 10281257
15:00+8ne225010 0.0 10281323
18:00+8n225676 0.0 1031650
21:00+7n125865 0.0 1031637
6 december, mon
mon600:00+7wnw116073 0.0 1031608
03:00+6nw2163100 0.0 1031325
06:00+6nw116499 0.0 1031346
09:00+8wnw1159100 0.0 1032407
12:00+10s125477 0.0 1030668
15:00+10ese0154100 0.0 1029591
18:00+10n2262100 0.0 1027291
21:00+10nnw2265100 0.0 1027233